Location: San Gennaro Vesuviano
(40.8833°N, 14.5333°E)
Time: 21:37:59
(UTC+00:00)

Cosmos 2266 Rocket - Pass Details

Date: 22 April 2021
Orbit: 935 x 1007 km, 82.9° (Epoch: 10 May)

Event Time Altitude Azimuth Distance (km) Brightness Sun altitude
Rises 19:50:52 0° 352° (N) 3,730 7.8 -21.0°
Reaches altitude 10° 19:53:25 10° 353° (N) 2,769 7.0 -21.4°
Maximum altitude 19:59:48 89° 84° (E) 989 3.9 -22.3°
Enters shadow 20:02:36 36° 173° (S) 1,503 4.6 -22.7°
